TimeEST,TemperatureF,Dew PointF,Humidity,Sea Level PressureIn,VisibilityMPH,Wind Direction,Wind SpeedMPH,Gust SpeedMPH,PrecipitationIn,Events,Conditions,WindDirDegrees,DateUTC
12:25 AM,53.6,48.2,82,30.13,10.0,East,10.4,19.6,N/A,,Overcast,100,2013-11-26 05:25:00
12:53 AM,53.1,48.0,83,30.12,10.0,East,9.2,-,N/A,,Overcast,80,2013-11-26 05:53:00
1:53 AM,53.1,48.0,83,30.09,10.0,East,9.2,-,N/A,,Overcast,80,2013-11-26 06:53:00
2:53 AM,54.0,50.0,86,30.09,10.0,East,5.8,-,N/A,,Overcast,100,2013-11-26 07:53:00
3:53 AM,53.1,51.1,93,30.03,10.0,East,4.6,-,0.00,,Mostly Cloudy,100,2013-11-26 08:53:00
4:24 AM,53.6,51.8,94,30.02,10.0,ENE,4.6,-,N/A,,Overcast,70,2013-11-26 09:24:00
4:53 AM,53.1,52.0,96,30.02,10.0,Variable,4.6,-,N/A,,Overcast,0,2013-11-26 09:53:00
5:04 AM,53.6,51.8,94,30.01,10.0,NE,5.8,-,0.00,Rain,Light Rain,50,2013-11-26 10:04:00
5:53 AM,55.9,53.1,90,29.98,10.0,East,8.1,18.4,0.00,,Overcast,90,2013-11-26 10:53:00
6:13 AM,55.4,53.6,94,29.97,10.0,East,8.1,-,0.00,Rain,Light Rain,90,2013-11-26 11:13:00
6:53 AM,55.9,54.0,93,29.94,9.0,ESE,9.2,-,0.00,Rain,Light Rain,120,2013-11-26 11:53:00
7:13 AM,57.2,55.4,94,29.93,8.0,SE,13.8,19.6,0.00,Rain,Light Rain,130,2013-11-26 12:13:00
7:53 AM,57.9,57.0,97,29.94,6.0,ESE,8.1,-,0.01,Rain,Rain,120,2013-11-26 12:53:00
8:53 AM,60.1,59.0,96,29.89,4.0,East,9.2,-,0.01,Rain,Light Rain,90,2013-11-26 13:53:00
9:53 AM,62.1,61.0,96,29.87,2.5,SE,13.8,-,N/A,Rain,Light Rain,130,2013-11-26 14:53:00
10:53 AM,64.0,63.0,96,29.81,3.0,ESE,8.1,-,N/A,Rain,Rain,120,2013-11-26 15:53:00
11:51 AM,66.2,64.4,94,29.78,5.0,SSE,15.0,24.2,0.05,Rain,Rain,160,2013-11-26 16:51:00
11:52 AM,66.9,64.9,93,29.78,5.0,SSE,13.8,24.2,0.05,Rain,Rain,160,2013-11-26 16:52:00
12:07 PM,66.2,64.4,94,29.76,1.8,SSE,16.1,-,0.09,Rain,Heavy Rain,160,2013-11-26 17:07:00
12:45 PM,66.2,66.2,100,29.74,3.0,SSW,15.0,25.3,0.28,Rain,Light Rain,210,2013-11-26 17:45:00
12:53 PM,66.9,66.0,97,29.73,1.8,SSE,17.3,25.3,0.36,Rain,Heavy Rain,160,2013-11-26 17:53:00
1:05 PM,66.2,66.2,100,29.73,4.0,South,12.7,-,0.03,Rain,Light Rain,170,2013-11-26 18:05:00
1:06 PM,66.2,66.2,100,29.73,4.0,South,12.7,-,0.03,Rain,Light Rain,170,2013-11-26 18:06:00
1:07 PM,66.2,66.2,100,29.73,5.0,South,12.7,-,0.03,Rain,Light Rain,170,2013-11-26 18:07:00
1:41 PM,66.2,66.2,100,29.72,1.8,South,8.1,-,0.09,Rain,Heavy Rain,170,2013-11-26 18:41:00
1:45 PM,66.2,66.2,100,29.72,2.0,South,10.4,-,0.09,Rain,Rain,170,2013-11-26 18:45:00
1:49 PM,66.2,66.2,100,29.72,3.0,South,11.5,-,0.10,Rain,Rain,180,2013-11-26 18:49:00
1:53 PM,66.9,66.0,97,29.72,5.0,South,10.4,-,0.10,Rain,Rain,170,2013-11-26 18:53:00
2:53 PM,66.9,66.9,100,29.68,4.0,SSE,8.1,-,N/A,Rain,Rain,160,2013-11-26 19:53:00
3:10 PM,66.2,66.2,100,29.67,2.5,SSE,4.6,-,0.04,Rain,Heavy Rain,160,2013-11-26 20:10:00
3:18 PM,66.2,66.2,100,29.67,4.0,SSE,4.6,-,0.04,Rain,Light Rain,150,2013-11-26 20:18:00
3:27 PM,68.0,66.2,94,29.67,1.8,SSE,4.6,-,0.10,Rain,Heavy Rain,150,2013-11-26 20:27:00
3:37 PM,68.0,66.2,94,29.67,0.2,SSE,13.8,17.3,0.52,Fog-Rain,Heavy Rain,160,2013-11-26 20:37:00
3:53 PM,68.0,68.0,100,29.66,1.2,SE,8.1,-,0.73,Rain,Heavy Rain,140,2013-11-26 20:53:00
4:04 PM,68.0,68.0,100,29.66,2.0,South,8.1,-,0.04,Rain,Heavy Rain,170,2013-11-26 21:04:00
4:07 PM,69.8,68.0,94,29.67,3.0,South,10.4,-,0.04,Rain,Light Rain,180,2013-11-26 21:07:00
4:14 PM,69.8,68.0,94,29.67,9.0,South,13.8,-,0.04,Rain,Light Rain,190,2013-11-26 21:14:00
4:27 PM,69.8,68.0,94,29.67,8.0,South,12.7,-,0.04,Rain,Light Rain,190,2013-11-26 21:27:00
4:38 PM,69.8,68.0,94,29.67,10.0,South,13.8,-,0.04,Rain,Light Rain,190,2013-11-26 21:38:00
4:41 PM,69.8,68.0,94,29.67,10.0,South,13.8,19.6,0.04,Rain,Light Rain,190,2013-11-26 21:41:00
4:48 PM,69.8,68.0,94,29.67,3.0,SSW,15.0,23.0,0.06,Rain,Heavy Rain,200,2013-11-26 21:48:00
4:53 PM,69.1,68.0,96,29.67,2.0,SSW,12.7,20.7,0.08,Rain,Heavy Rain,210,2013-11-26 21:53:00
4:56 PM,69.8,68.0,94,29.67,3.0,SSW,15.0,20.7,0.00,Rain,Rain,210,2013-11-26 21:56:00
5:15 PM,69.8,68.0,94,29.67,10.0,SSW,10.4,-,0.00,,Overcast,200,2013-11-26 22:15:00
5:50 PM,68.0,66.2,94,29.67,10.0,South,8.1,-,0.00,,Overcast,180,2013-11-26 22:50:00
5:53 PM,68.0,66.9,96,29.67,10.0,South,8.1,-,0.00,,Overcast,180,2013-11-26 22:53:00
6:53 PM,66.9,66.9,100,29.68,10.0,South,6.9,-,0.00,,Mostly Cloudy,190,2013-11-26 23:53:00
7:38 PM,68.0,66.2,94,29.68,10.0,South,8.1,-,N/A,,Overcast,190,2013-11-27 00:38:00
7:53 PM,68.0,66.9,96,29.67,10.0,SSW,6.9,-,N/A,,Overcast,200,2013-11-27 00:53:00
8:17 PM,62.6,62.6,100,29.68,10.0,WNW,13.8,18.4,N/A,,Overcast,300,2013-11-27 01:17:00
8:25 PM,60.8,59.0,94,29.69,9.0,NW,17.3,-,0.00,Rain,Light Rain,310,2013-11-27 01:25:00
8:53 PM,54.0,53.1,97,29.71,4.0,NW,11.5,-,0.01,Rain,Rain,310,2013-11-27 01:53:00
9:07 PM,53.6,51.8,94,29.71,5.0,NW,11.5,18.4,0.01,Rain,Light Rain,310,2013-11-27 02:07:00
9:30 PM,51.8,50.0,94,29.73,10.0,WNW,9.2,-,0.01,,Overcast,300,2013-11-27 02:30:00
9:46 PM,51.8,50.0,94,29.71,10.0,Variable,5.8,-,0.01,Rain,Light Rain,0,2013-11-27 02:46:00
9:53 PM,51.1,50.0,96,29.74,10.0,WNW,6.9,-,0.01,Rain,Light Rain,300,2013-11-27 02:53:00
10:53 PM,50.0,48.9,96,29.71,9.0,Calm,Calm,-,0.00,Rain,Light Rain,0,2013-11-27 03:53:00
11:53 PM,48.9,48.0,97,29.75,10.0,WNW,13.8,-,0.00,Rain,Light Rain,290,2013-11-27 04:53:00